Location: Newark
(13.8117°N, 3.6025°W)
Time: 15:32:13
(UTC+00:00)

Vanguard 2 - Pass Details

Date: 26 August 2019
Orbit: 554 x 2937 km, 32.9° (Epoch: 22 October)

Event Time Altitude Azimuth Distance (km) Brightness Sun altitude
Rises 19:03:30 0° 294° (WNW) 5,228 13.8 -8.8°
Reaches altitude 10° 19:06:32 10° 291° (WNW) 4,505 13.1 -9.5°
Maximum altitude 19:19:47 60° 215° (SW) 2,941 10.5 -12.6°
Drops below altitude 10° 19:37:19 10° 139° (SE) 5,752 11.5 -16.8°
Enters shadow 19:37:56 - 139° (SE) 5,882 11.5 -16.9°
Sets 19:41:51 0° 136° (SE) 6,700 - -17.8°
